Year,Month,Day,Hour,Minute,Value (Times are PST for temperature in C)
2008,08,17,00,00,17.70
2008,08,17,00,01,17.70
2008,08,17,00,02,17.70
2008,08,17,00,03,17.70
2008,08,17,00,04,17.70
2008,08,17,00,05,17.70
2008,08,17,00,06,17.70
2008,08,17,00,07,17.70
2008,08,17,00,08,17.70
2008,08,17,00,09,17.70
2008,08,17,00,10,17.70
2008,08,17,00,11,17.70
2008,08,17,00,12,17.70
2008,08,17,00,13,17.70
2008,08,17,00,14,17.70
2008,08,17,00,15,17.70
2008,08,17,00,16,17.70
2008,08,17,00,17,17.70
2008,08,17,00,18,17.60
2008,08,17,00,19,17.60
2008,08,17,00,20,17.60
2008,08,17,00,21,17.60
2008,08,17,00,22,17.60
2008,08,17,00,23,17.60
2008,08,17,00,24,17.60
2008,08,17,00,25,17.60
2008,08,17,00,26,17.50
2008,08,17,00,27,17.50
2008,08,17,00,28,17.50
2008,08,17,00,29,17.50
2008,08,17,00,30,17.50
2008,08,17,00,31,17.50
2008,08,17,00,32,17.40
2008,08,17,00,33,17.40
2008,08,17,00,34,17.40
2008,08,17,00,35,17.40
2008,08,17,00,36,17.40
2008,08,17,00,37,17.40
2008,08,17,00,38,17.40
2008,08,17,00,39,17.40
2008,08,17,00,40,17.40
2008,08,17,00,41,17.40
2008,08,17,00,42,17.40
2008,08,17,00,43,17.40
2008,08,17,00,44,17.40
2008,08,17,00,45,17.40
2008,08,17,00,46,17.40
2008,08,17,00,47,17.40
2008,08,17,00,48,17.40
2008,08,17,00,49,17.40
2008,08,17,00,50,17.30
2008,08,17,00,51,17.30
2008,08,17,00,52,17.30
2008,08,17,00,53,17.30
2008,08,17,00,54,17.30
2008,08,17,00,55,17.30
2008,08,17,00,56,17.20
2008,08,17,00,57,17.20
2008,08,17,00,58,17.20
2008,08,17,00,59,17.20
2008,08,17,01,00,17.20
2008,08,17,01,01,17.20
2008,08,17,01,02,17.20
2008,08,17,01,03,17.20
2008,08,17,01,04,17.20
2008,08,17,01,05,17.20
2008,08,17,01,06,17.20
2008,08,17,01,07,17.20
2008,08,17,01,08,17.30
2008,08,17,01,09,17.30
2008,08,17,01,10,17.30
2008,08,17,01,11,17.30
2008,08,17,01,12,17.30
2008,08,17,01,13,17.30
2008,08,17,01,14,17.30
2008,08,17,01,15,17.40
2008,08,17,01,16,17.40
2008,08,17,01,17,17.40
2008,08,17,01,18,17.40
2008,08,17,01,19,17.40
2008,08,17,01,20,17.30
2008,08,17,01,21,17.30
2008,08,17,01,22,17.30
2008,08,17,01,23,17.30
2008,08,17,01,24,17.30
2008,08,17,01,25,17.30
2008,08,17,01,26,17.30
2008,08,17,01,27,17.30
2008,08,17,01,28,17.20
2008,08,17,01,29,17.20
2008,08,17,01,30,17.20
2008,08,17,01,31,17.20
2008,08,17,01,32,17.20
2008,08,17,01,33,17.20
2008,08,17,01,34,17.20
2008,08,17,01,35,17.10
2008,08,17,01,36,17.10
2008,08,17,01,37,17.10
2008,08,17,01,38,17.10
2008,08,17,01,39,17.10
2008,08,17,01,40,17.10
2008,08,17,01,41,17.00
2008,08,17,01,42,17.00
2008,08,17,01,43,17.00
2008,08,17,01,44,16.90
2008,08,17,01,45,16.90
2008,08,17,01,46,16.90
2008,08,17,01,47,16.90
2008,08,17,01,48,16.90
2008,08,17,01,49,16.90
2008,08,17,01,50,16.90
2008,08,17,01,51,16.80
2008,08,17,01,52,16.80
2008,08,17,01,53,16.80
2008,08,17,01,54,16.80
2008,08,17,01,55,16.80
2008,08,17,01,56,16.80
2008,08,17,01,57,16.80
2008,08,17,01,58,16.80
2008,08,17,01,59,16.80
2008,08,17,02,00,16.80
2008,08,17,02,01,16.80
2008,08,17,02,02,16.70
2008,08,17,02,03,16.70
2008,08,17,02,04,16.70
2008,08,17,02,05,16.70
2008,08,17,02,06,16.70
2008,08,17,02,07,16.70
2008,08,17,02,08,16.70
2008,08,17,02,09,16.70
2008,08,17,02,10,16.70
2008,08,17,02,11,16.70
2008,08,17,02,12,16.70
2008,08,17,02,13,16.70
2008,08,17,02,14,16.70
2008,08,17,02,15,16.60
2008,08,17,02,16,16.60
2008,08,17,02,17,16.60
2008,08,17,02,18,16.60
2008,08,17,02,19,16.60
2008,08,17,02,20,16.60
2008,08,17,02,21,16.60
2008,08,17,02,22,16.60
2008,08,17,02,23,16.50
2008,08,17,02,24,16.50
2008,08,17,02,25,16.50
2008,08,17,02,26,16.50
2008,08,17,02,27,16.50
2008,08,17,02,28,16.50
2008,08,17,02,29,16.50
2008,08,17,02,30,16.50
2008,08,17,02,31,16.50
2008,08,17,02,32,16.50
2008,08,17,02,33,16.50
2008,08,17,02,34,16.50
2008,08,17,02,35,16.50
2008,08,17,02,36,16.50
2008,08,17,02,37,16.50
2008,08,17,02,38,16.50
2008,08,17,02,39,16.50
2008,08,17,02,40,16.50
2008,08,17,02,41,16.40
2008,08,17,02,42,16.40
2008,08,17,02,43,16.40
2008,08,17,02,44,16.40
2008,08,17,02,45,16.40
2008,08,17,02,46,16.40
2008,08,17,02,47,16.40
2008,08,17,02,48,16.40
2008,08,17,02,49,16.30
2008,08,17,02,50,16.30
2008,08,17,02,51,16.30
2008,08,17,02,52,16.30
2008,08,17,02,53,16.30
2008,08,17,02,54,16.30
2008,08,17,02,55,16.30
2008,08,17,02,56,16.20
2008,08,17,02,57,16.20
2008,08,17,02,58,16.20
2008,08,17,02,59,16.20
2008,08,17,03,00,16.20
2008,08,17,03,01,16.20
2008,08,17,03,02,16.20
2008,08,17,03,03,16.10
2008,08,17,03,04,16.10
2008,08,17,03,05,16.10
2008,08,17,03,06,16.10
2008,08,17,03,07,16.10
2008,08,17,03,08,16.10
2008,08,17,03,09,16.10
2008,08,17,03,10,16.00
2008,08,17,03,11,16.00
2008,08,17,03,12,16.00
2008,08,17,03,13,16.00
2008,08,17,03,14,16.00
2008,08,17,03,15,16.00
2008,08,17,03,16,16.00
2008,08,17,03,17,16.00
2008,08,17,03,18,16.00
2008,08,17,03,19,16.00
2008,08,17,03,20,16.00
2008,08,17,03,21,16.00
2008,08,17,03,22,16.00
2008,08,17,03,23,16.00
2008,08,17,03,24,16.00
2008,08,17,03,25,16.00
2008,08,17,03,26,16.00
2008,08,17,03,27,16.00
2008,08,17,03,28,16.00
2008,08,17,03,29,16.00
2008,08,17,03,30,16.00
2008,08,17,03,31,16.00
2008,08,17,03,32,16.00
2008,08,17,03,33,16.00
2008,08,17,03,34,16.00
2008,08,17,03,35,16.10
2008,08,17,03,36,16.10
2008,08,17,03,37,16.10
2008,08,17,03,38,16.20
2008,08,17,03,39,16.20
2008,08,17,03,40,16.20
2008,08,17,03,41,16.20
2008,08,17,03,42,16.20
2008,08,17,03,43,16.20
2008,08,17,03,44,16.20
2008,08,17,03,45,16.30
2008,08,17,03,46,16.30
2008,08,17,03,47,16.30
2008,08,17,03,48,16.30
2008,08,17,03,49,16.30
2008,08,17,03,50,16.20
2008,08,17,03,51,16.20
2008,08,17,03,52,16.20
2008,08,17,03,53,16.20
2008,08,17,03,54,16.10
2008,08,17,03,55,16.10
2008,08,17,03,56,16.10
2008,08,17,03,57,16.00
2008,08,17,03,58,16.00
2008,08,17,03,59,16.00
2008,08,17,04,00,15.90
2008,08,17,04,01,15.90
2008,08,17,04,02,15.90
2008,08,17,04,03,15.90
2008,08,17,04,04,15.90
2008,08,17,04,05,15.80
2008,08,17,04,06,15.80
2008,08,17,04,07,15.80
2008,08,17,04,21,15.80
2008,08,17,04,37,15.60
2008,08,17,04,45,15.70
2008,08,17,04,57,15.70
2008,08,17,04,58,15.70
2008,08,17,04,59,15.70
2008,08,17,05,00,15.70
2008,08,17,05,01,15.70
2008,08,17,05,02,15.70
2008,08,17,05,03,15.70
2008,08,17,05,04,15.70
2008,08,17,05,05,15.70
2008,08,17,05,06,15.70
2008,08,17,05,07,15.70
2008,08,17,05,08,15.70
2008,08,17,05,09,15.60
2008,08,17,05,10,15.60
2008,08,17,05,11,15.60
2008,08,17,05,12,15.60
2008,08,17,05,13,15.60
2008,08,17,05,14,15.60
2008,08,17,05,15,15.60
2008,08,17,05,16,15.50
2008,08,17,05,17,15.50
2008,08,17,05,18,15.50
2008,08,17,05,19,15.50
2008,08,17,05,20,15.40
2008,08,17,05,21,15.40
2008,08,17,05,22,15.40
2008,08,17,05,23,15.40
2008,08,17,05,24,15.40
2008,08,17,05,25,15.40
2008,08,17,05,26,15.30
2008,08,17,05,27,15.30
2008,08,17,05,28,15.30
2008,08,17,05,29,15.30
2008,08,17,05,30,15.30
2008,08,17,05,31,15.30
2008,08,17,05,32,15.30
2008,08,17,05,33,15.30
2008,08,17,05,34,15.30
2008,08,17,05,35,15.30
2008,08,17,05,36,15.30
2008,08,17,05,37,15.30
2008,08,17,05,38,15.30
2008,08,17,05,39,15.30
2008,08,17,05,40,15.30
2008,08,17,05,41,15.30
2008,08,17,05,42,15.30
2008,08,17,05,43,15.30
2008,08,17,05,44,15.30
2008,08,17,05,45,15.30
2008,08,17,05,46,15.20
2008,08,17,05,47,15.20
2008,08,17,05,48,15.20
2008,08,17,05,49,15.20
2008,08,17,05,50,15.20
2008,08,17,05,51,15.10
2008,08,17,05,52,15.10
2008,08,17,05,53,15.00
2008,08,17,05,54,15.00
2008,08,17,05,55,15.00
2008,08,17,05,56,15.00
2008,08,17,05,57,15.00
2008,08,17,05,58,15.00
2008,08,17,05,59,14.90
2008,08,17,06,00,14.90
2008,08,17,06,01,14.80
2008,08,17,06,02,14.80
2008,08,17,06,03,14.80
2008,08,17,06,04,14.70
2008,08,17,06,05,14.70
2008,08,17,06,06,14.70
2008,08,17,06,07,14.70
2008,08,17,06,08,14.60
2008,08,17,06,09,14.60
2008,08,17,06,10,14.60
2008,08,17,06,11,14.60
2008,08,17,06,12,14.60
2008,08,17,06,13,14.60
2008,08,17,06,14,14.60
2008,08,17,06,15,14.60
2008,08,17,06,16,14.60
2008,08,17,06,17,14.60
2008,08,17,06,18,14.60
2008,08,17,06,19,14.60
2008,08,17,06,20,14.60
2008,08,17,06,21,14.60
2008,08,17,06,22,14.70
2008,08,17,06,23,14.70
2008,08,17,06,24,14.70
2008,08,17,06,25,14.80
2008,08,17,06,26,14.80
2008,08,17,06,27,14.80
2008,08,17,06,28,14.90
2008,08,17,06,29,14.90
2008,08,17,06,30,14.90
2008,08,17,06,31,14.90
2008,08,17,06,32,14.80
2008,08,17,06,33,14.80
2008,08,17,06,34,14.80
2008,08,17,06,35,14.80
2008,08,17,06,36,14.80
2008,08,17,06,37,14.80
2008,08,17,06,38,14.80
2008,08,17,06,39,14.80
2008,08,17,06,40,14.70
2008,08,17,06,41,14.70
2008,08,17,06,42,14.70
2008,08,17,06,43,14.70
2008,08,17,06,44,14.70
2008,08,17,06,45,14.70
2008,08,17,06,46,14.70
2008,08,17,06,47,14.70
2008,08,17,06,48,14.70
2008,08,17,06,49,14.70
2008,08,17,06,50,14.70
2008,08,17,06,51,14.70
2008,08,17,06,52,14.70
2008,08,17,06,53,14.70
2008,08,17,06,54,14.70
2008,08,17,06,55,14.70
2008,08,17,06,56,14.70
2008,08,17,06,57,14.70
2008,08,17,06,58,14.80
2008,08,17,06,59,14.70
2008,08,17,07,00,14.70
2008,08,17,07,01,14.80
2008,08,17,07,02,14.80
2008,08,17,07,03,14.80
2008,08,17,07,04,14.80
2008,08,17,07,05,14.80
2008,08,17,07,06,14.80
2008,08,17,07,07,14.80
2008,08,17,07,08,14.90
2008,08,17,07,09,14.90
2008,08,17,07,10,14.90
2008,08,17,07,11,14.80
2008,08,17,07,12,14.80
2008,08,17,07,13,14.80
2008,08,17,07,14,14.80
2008,08,17,07,15,14.80
2008,08,17,07,16,14.80
2008,08,17,07,17,14.80
2008,08,17,07,18,14.80
2008,08,17,07,19,14.80
2008,08,17,07,20,14.80
2008,08,17,07,21,14.80
2008,08,17,07,22,14.80
2008,08,17,07,23,14.80
2008,08,17,07,24,14.90
2008,08,17,07,25,14.90
2008,08,17,07,26,14.90
2008,08,17,07,27,14.90
2008,08,17,07,28,14.90
2008,08,17,07,29,14.90
2008,08,17,07,30,15.00
2008,08,17,07,31,15.00
2008,08,17,07,32,15.00
2008,08,17,07,33,15.00
2008,08,17,07,34,15.00
2008,08,17,07,35,15.00
2008,08,17,07,36,15.00
2008,08,17,07,37,15.00
2008,08,17,07,38,15.00
2008,08,17,07,39,15.10
2008,08,17,07,40,15.20
2008,08,17,07,41,15.20
2008,08,17,07,42,15.30
2008,08,17,07,43,15.30
2008,08,17,07,44,15.40
2008,08,17,07,45,15.40
2008,08,17,07,46,15.50
2008,08,17,07,47,15.50
2008,08,17,07,48,15.60
2008,08,17,07,49,15.70
2008,08,17,07,50,15.70
2008,08,17,07,51,15.80
2008,08,17,07,52,15.80
2008,08,17,07,53,15.80
2008,08,17,07,54,15.90
2008,08,17,07,55,15.90
2008,08,17,07,56,15.90
2008,08,17,07,57,16.00
2008,08,17,07,58,16.00
2008,08,17,07,59,16.10
2008,08,17,08,00,16.10
2008,08,17,08,01,16.20
2008,08,17,08,02,16.30
2008,08,17,08,03,16.30
2008,08,17,08,04,16.40
2008,08,17,08,05,16.40
2008,08,17,08,06,16.50
2008,08,17,08,07,16.60
2008,08,17,08,08,16.60
2008,08,17,08,09,16.70
2008,08,17,08,10,16.70
2008,08,17,08,11,16.70
2008,08,17,08,12,16.70
2008,08,17,08,13,16.80
2008,08,17,08,14,16.80
2008,08,17,08,15,16.80
2008,08,17,08,16,16.90
2008,08,17,08,17,16.90
2008,08,17,08,18,16.90
2008,08,17,08,19,17.00
2008,08,17,08,20,17.00
2008,08,17,08,21,17.00
2008,08,17,08,22,17.10
2008,08,17,08,23,17.10
2008,08,17,08,24,17.20
2008,08,17,08,25,17.20
2008,08,17,08,26,17.30
2008,08,17,08,27,17.30
2008,08,17,08,28,17.40
2008,08,17,08,29,17.40
2008,08,17,08,30,17.50
2008,08,17,08,31,17.50
2008,08,17,08,32,17.50
2008,08,17,08,33,17.60
2008,08,17,08,34,17.70
2008,08,17,08,35,17.70
2008,08,17,08,36,17.80
2008,08,17,08,37,17.80
2008,08,17,08,38,17.80
2008,08,17,08,39,17.90
2008,08,17,08,40,17.90
2008,08,17,08,41,17.90
2008,08,17,08,42,18.00
2008,08,17,08,43,18.00
2008,08,17,08,44,18.10
2008,08,17,08,45,18.10
2008,08,17,08,46,18.20
2008,08,17,08,47,18.20
2008,08,17,08,48,18.30
2008,08,17,08,49,18.40
2008,08,17,08,50,18.60
2008,08,17,08,51,18.70
2008,08,17,08,52,18.80
2008,08,17,08,53,18.90
2008,08,17,08,54,19.00
2008,08,17,08,55,19.10
2008,08,17,08,56,19.30
2008,08,17,08,57,19.40
2008,08,17,08,58,19.60
2008,08,17,08,59,19.80
2008,08,17,09,00,20.00
2008,08,17,09,01,20.20
2008,08,17,09,02,20.40
2008,08,17,09,03,20.60
2008,08,17,09,04,20.70
2008,08,17,09,05,20.80
2008,08,17,09,06,20.90
2008,08,17,09,07,21.00
2008,08,17,09,08,21.10
2008,08,17,09,09,21.20
2008,08,17,09,10,21.30
2008,08,17,09,11,21.40
2008,08,17,09,12,21.40
2008,08,17,09,13,21.40
2008,08,17,09,14,21.50
2008,08,17,09,15,21.50
2008,08,17,09,16,21.60
2008,08,17,09,17,21.60
2008,08,17,09,18,21.60
2008,08,17,09,19,21.60
2008,08,17,09,20,21.70
2008,08,17,09,21,21.70
2008,08,17,09,22,21.80
2008,08,17,09,23,21.80
2008,08,17,09,24,21.80
2008,08,17,09,25,21.80
2008,08,17,09,26,21.80
2008,08,17,09,27,21.80
2008,08,17,09,28,21.80
2008,08,17,09,29,21.80
2008,08,17,09,30,21.80
2008,08,17,09,31,21.80
2008,08,17,09,32,21.90
2008,08,17,09,33,21.90
2008,08,17,09,34,21.90
2008,08,17,09,35,21.80
2008,08,17,09,36,21.80
2008,08,17,09,37,21.80
2008,08,17,09,38,21.80
2008,08,17,09,39,21.80
2008,08,17,09,40,21.80
2008,08,17,09,41,21.80
2008,08,17,09,42,21.80
2008,08,17,09,43,21.80
2008,08,17,09,44,21.80
2008,08,17,09,45,21.80
2008,08,17,09,46,21.80
2008,08,17,09,47,21.80
2008,08,17,09,48,21.80
2008,08,17,09,49,21.80
2008,08,17,09,50,21.80
2008,08,17,09,51,21.80
2008,08,17,09,52,21.70
2008,08,17,09,53,21.70
2008,08,17,09,54,21.70
2008,08,17,09,55,21.60
2008,08,17,09,56,21.70
2008,08,17,09,57,21.70
2008,08,17,09,58,21.70
2008,08,17,09,59,21.70
2008,08,17,10,00,21.80
2008,08,17,10,01,21.80
2008,08,17,10,02,21.80
2008,08,17,10,03,21.80
2008,08,17,10,04,21.70
2008,08,17,10,05,21.70
2008,08,17,10,06,21.80
2008,08,17,10,07,21.80
2008,08,17,10,08,21.80
2008,08,17,10,09,21.90
2008,08,17,10,10,22.00
2008,08,17,10,11,22.10
2008,08,17,10,12,22.10
2008,08,17,10,13,22.20
2008,08,17,10,14,22.20
2008,08,17,10,15,22.20
2008,08,17,10,16,22.20
2008,08,17,10,17,22.20
2008,08,17,10,18,22.30
2008,08,17,10,19,22.30
2008,08,17,10,20,22.30
2008,08,17,10,21,22.30
2008,08,17,10,22,22.30
2008,08,17,10,23,22.30
2008,08,17,10,24,22.30
2008,08,17,10,25,22.30
2008,08,17,10,26,22.30
2008,08,17,10,27,22.30
2008,08,17,10,28,22.40
2008,08,17,10,29,22.40
2008,08,17,10,30,22.50
2008,08,17,10,31,22.60
2008,08,17,10,32,22.70
2008,08,17,10,33,22.80
2008,08,17,10,34,22.80
2008,08,17,10,35,22.90
2008,08,17,10,36,23.00
2008,08,17,10,37,23.00
2008,08,17,10,38,23.10
2008,08,17,10,39,23.20
2008,08,17,10,40,23.30
2008,08,17,10,41,23.30
2008,08,17,10,42,23.40
2008,08,17,10,43,23.50
2008,08,17,10,44,23.60
2008,08,17,10,45,23.60
2008,08,17,10,46,23.60
2008,08,17,10,47,23.70
2008,08,17,10,48,23.70
2008,08,17,10,49,23.80
2008,08,17,10,50,23.80
2008,08,17,10,51,23.80
2008,08,17,10,52,23.90
2008,08,17,10,53,23.90
2008,08,17,10,54,23.90
2008,08,17,10,55,23.90
2008,08,17,10,56,23.90
2008,08,17,10,57,24.00
2008,08,17,10,58,24.10
2008,08,17,10,59,24.10
2008,08,17,11,00,24.20
2008,08,17,11,01,24.20
2008,08,17,11,02,24.30
2008,08,17,11,03,24.30
2008,08,17,11,04,24.30
2008,08,17,11,05,24.30
2008,08,17,11,06,24.30
2008,08,17,11,07,24.30
2008,08,17,11,08,24.30
2008,08,17,11,09,24.30
2008,08,17,11,10,24.40
2008,08,17,11,11,24.50
2008,08,17,11,12,24.60
2008,08,17,11,13,24.60
2008,08,17,11,14,24.60
2008,08,17,11,15,24.60
2008,08,17,11,16,24.70
2008,08,17,11,17,24.80
2008,08,17,11,18,24.90
2008,08,17,11,19,24.90
2008,08,17,11,20,24.90
2008,08,17,11,21,24.90
2008,08,17,11,22,25.00
2008,08,17,11,23,25.00
2008,08,17,11,24,25.10
2008,08,17,11,25,25.10
2008,08,17,11,26,25.10
2008,08,17,11,27,25.20
2008,08,17,11,28,25.30
2008,08,17,11,29,25.40
2008,08,17,11,30,25.40
2008,08,17,11,31,25.40
2008,08,17,11,32,25.40
2008,08,17,11,33,25.50
2008,08,17,11,34,25.60
2008,08,17,11,35,25.60
2008,08,17,11,36,25.60
2008,08,17,11,37,25.60
2008,08,17,11,38,25.60
2008,08,17,11,39,25.60
2008,08,17,11,40,25.60
2008,08,17,11,41,25.60
2008,08,17,11,42,25.60
2008,08,17,11,43,25.70
2008,08,17,11,44,25.70
2008,08,17,11,45,25.70
2008,08,17,11,46,25.70
2008,08,17,11,47,25.80
2008,08,17,11,48,25.90
2008,08,17,11,49,25.90
2008,08,17,11,50,25.90
2008,08,17,11,51,25.90
2008,08,17,11,52,25.90
2008,08,17,11,53,25.90
2008,08,17,11,54,25.90
2008,08,17,11,55,25.90
2008,08,17,11,56,25.80
2008,08,17,11,57,25.70
2008,08,17,11,58,25.60
2008,08,17,11,59,25.60
2008,08,17,12,00,25.60
2008,08,17,12,01,25.60
2008,08,17,12,02,25.70
2008,08,17,12,03,25.70
2008,08,17,12,04,25.60
2008,08,17,12,05,25.40
2008,08,17,12,06,25.30
2008,08,17,12,07,25.20
2008,08,17,12,08,25.20
2008,08,17,12,09,25.30
2008,08,17,12,10,25.30
2008,08,17,12,11,25.20
2008,08,17,12,12,25.20
2008,08,17,12,13,25.20
2008,08,17,12,14,25.20
2008,08,17,12,15,25.20
2008,08,17,12,16,25.20
2008,08,17,12,17,25.20
2008,08,17,12,18,25.30
2008,08,17,12,19,25.30
2008,08,17,12,20,25.30
2008,08,17,12,21,25.40
2008,08,17,12,22,25.40
2008,08,17,12,23,25.40
2008,08,17,12,24,25.40
2008,08,17,12,25,25.40
2008,08,17,12,26,25.40
2008,08,17,12,27,25.40
2008,08,17,12,28,25.40
2008,08,17,12,29,25.40
2008,08,17,12,30,25.40
2008,08,17,12,31,25.30
2008,08,17,12,32,25.20
2008,08,17,12,33,25.20
2008,08,17,12,34,25.20
2008,08,17,12,35,25.30
2008,08,17,12,36,25.40
2008,08,17,12,37,25.40
2008,08,17,12,38,25.40
2008,08,17,12,39,25.40
2008,08,17,12,40,25.50
2008,08,17,12,41,25.60
2008,08,17,12,42,25.60
2008,08,17,12,43,25.80
2008,08,17,12,44,25.80
2008,08,17,12,45,25.80
2008,08,17,12,46,25.70
2008,08,17,12,47,25.60
2008,08,17,12,48,25.60
2008,08,17,12,49,25.50
2008,08,17,12,50,25.50
2008,08,17,12,51,25.60
2008,08,17,12,52,25.60
2008,08,17,12,53,25.60
2008,08,17,12,54,25.60
2008,08,17,12,55,25.60
2008,08,17,12,56,25.50
2008,08,17,12,57,25.50
2008,08,17,12,58,25.60
2008,08,17,12,59,25.60
2008,08,17,13,00,25.60
2008,08,17,13,01,25.70
2008,08,17,13,02,25.80
2008,08,17,13,03,25.90
2008,08,17,13,04,26.00
2008,08,17,13,05,26.20
2008,08,17,13,06,26.30
2008,08,17,13,07,26.50
2008,08,17,13,08,26.60
2008,08,17,13,09,26.80
2008,08,17,13,10,26.90
2008,08,17,13,11,27.10
2008,08,17,13,12,27.20
2008,08,17,13,13,27.40
2008,08,17,13,14,27.50
2008,08,17,13,15,27.70
2008,08,17,13,16,27.80
2008,08,17,13,17,27.80
2008,08,17,13,18,27.80
2008,08,17,13,19,27.90
2008,08,17,13,20,27.90
2008,08,17,13,21,27.90
2008,08,17,13,22,27.80
2008,08,17,13,23,27.70
2008,08,17,13,24,27.70
2008,08,17,13,25,27.60
2008,08,17,13,26,27.60
2008,08,17,13,27,27.60
2008,08,17,13,28,27.50
2008,08,17,13,29,27.50
2008,08,17,13,30,27.40
2008,08,17,13,31,27.40
2008,08,17,13,32,27.50
2008,08,17,13,33,27.60
2008,08,17,13,34,27.60
2008,08,17,13,35,27.60
2008,08,17,13,36,27.60
2008,08,17,13,37,27.50
2008,08,17,13,38,27.50
2008,08,17,13,39,27.40
2008,08,17,13,40,27.40
2008,08,17,13,41,27.40
2008,08,17,13,42,27.20
2008,08,17,13,43,27.20
2008,08,17,13,44,27.30
2008,08,17,13,45,27.30
2008,08,17,13,46,27.10
2008,08,17,13,47,27.00
2008,08,17,13,48,26.90
2008,08,17,13,49,26.80
2008,08,17,13,50,26.70
2008,08,17,13,51,26.60
2008,08,17,13,52,26.70
2008,08,17,13,53,26.70
2008,08,17,13,54,26.70
2008,08,17,13,55,26.70
2008,08,17,13,56,26.70
2008,08,17,13,57,26.70
2008,08,17,13,58,26.70
2008,08,17,13,59,26.80
2008,08,17,14,00,26.80
2008,08,17,14,01,26.80
2008,08,17,14,02,26.80
2008,08,17,14,03,26.80
2008,08,17,14,04,26.80
2008,08,17,14,05,26.90
2008,08,17,14,06,26.90
2008,08,17,14,07,26.90
2008,08,17,14,08,27.00
2008,08,17,14,09,27.00
2008,08,17,14,10,27.00
2008,08,17,14,11,26.90
2008,08,17,14,12,26.90
2008,08,17,14,13,26.80
2008,08,17,14,14,26.50
2008,08,17,14,15,26.40
2008,08,17,14,16,26.30
2008,08,17,14,17,26.20
2008,08,17,14,18,26.20
2008,08,17,14,19,26.10
2008,08,17,14,20,26.00
2008,08,17,14,21,25.90
2008,08,17,14,22,25.80
2008,08,17,14,23,25.80
2008,08,17,14,24,25.70
2008,08,17,14,25,25.60
2008,08,17,14,26,25.60
2008,08,17,14,27,25.50
2008,08,17,14,28,25.40
2008,08,17,14,29,25.40
2008,08,17,14,30,25.50
2008,08,17,14,31,25.60
2008,08,17,14,32,25.60
2008,08,17,14,33,25.60
2008,08,17,14,34,25.60
2008,08,17,14,35,25.50
2008,08,17,14,36,25.40
2008,08,17,14,37,25.40
2008,08,17,14,38,25.10
2008,08,17,14,39,24.80
2008,08,17,14,40,24.50
2008,08,17,14,41,24.20
2008,08,17,14,42,24.00
2008,08,17,14,43,23.60
2008,08,17,14,44,23.30
2008,08,17,14,45,22.90
2008,08,17,14,46,22.50
2008,08,17,14,47,22.30
2008,08,17,14,48,22.10
2008,08,17,14,49,22.00
2008,08,17,14,50,22.00
2008,08,17,14,51,22.10
2008,08,17,14,52,22.20
2008,08,17,14,53,22.40
2008,08,17,14,54,22.60
2008,08,17,14,55,22.80
2008,08,17,14,56,22.90
2008,08,17,14,57,23.00
2008,08,17,14,58,22.90
2008,08,17,14,59,22.90
2008,08,17,15,00,22.80
2008,08,17,15,01,22.70
2008,08,17,15,02,22.50
2008,08,17,15,03,22.40
2008,08,17,15,04,22.40
2008,08,17,15,05,22.40
2008,08,17,15,06,22.40
2008,08,17,15,07,22.50
2008,08,17,15,08,22.60
2008,08,17,15,09,22.80
2008,08,17,15,10,22.90
2008,08,17,15,11,23.00
2008,08,17,15,12,23.10
2008,08,17,15,13,23.00
2008,08,17,15,14,22.90
2008,08,17,15,15,22.70
2008,08,17,15,16,22.60
2008,08,17,15,17,22.50
2008,08,17,15,18,22.50
2008,08,17,15,19,22.40
2008,08,17,15,20,22.20
2008,08,17,15,21,22.10
2008,08,17,15,22,22.10
2008,08,17,15,23,22.10
2008,08,17,15,24,22.10
2008,08,17,15,25,22.30
2008,08,17,15,26,22.40
2008,08,17,15,27,22.60
2008,08,17,15,28,22.70
2008,08,17,15,29,22.70
2008,08,17,15,30,22.70
2008,08,17,15,31,22.70
2008,08,17,15,32,22.70
2008,08,17,15,33,22.70
2008,08,17,15,34,22.70
2008,08,17,15,35,22.70
2008,08,17,15,36,22.80
2008,08,17,15,37,22.90
2008,08,17,15,38,22.90
2008,08,17,15,39,22.90
2008,08,17,15,40,22.80
2008,08,17,15,41,22.70
2008,08,17,15,42,22.40
2008,08,17,15,43,22.10
2008,08,17,15,44,21.90
2008,08,17,15,45,21.70
2008,08,17,15,46,21.60
2008,08,17,15,47,21.40
2008,08,17,15,48,21.30
2008,08,17,15,49,21.20
2008,08,17,15,50,21.20
2008,08,17,15,51,21.20
2008,08,17,15,52,21.20
2008,08,17,15,53,21.20
2008,08,17,15,54,21.10
2008,08,17,15,55,20.90
2008,08,17,15,56,20.70
2008,08,17,15,57,20.40
2008,08,17,15,58,20.20
2008,08,17,15,59,20.10
2008,08,17,16,00,19.90
2008,08,17,16,01,19.90
2008,08,17,16,02,19.90
2008,08,17,16,03,19.90
2008,08,17,16,04,19.80
2008,08,17,16,05,19.80
2008,08,17,16,06,19.80
2008,08,17,16,07,19.80
2008,08,17,16,08,19.80
2008,08,17,16,09,19.80
2008,08,17,16,10,19.80
2008,08,17,16,11,19.70
2008,08,17,16,12,19.70
2008,08,17,16,13,19.70
2008,08,17,16,14,19.60
2008,08,17,16,15,19.60
2008,08,17,16,16,19.50
2008,08,17,16,17,19.50
2008,08,17,16,18,19.50
2008,08,17,16,19,19.50
2008,08,17,16,20,19.50
2008,08,17,16,21,19.50
2008,08,17,16,22,19.50
2008,08,17,16,23,19.60
2008,08,17,16,24,19.80
2008,08,17,16,25,19.90
2008,08,17,16,26,20.00
2008,08,17,16,27,20.00
2008,08,17,16,28,20.10
2008,08,17,16,29,20.10
2008,08,17,16,30,20.20
2008,08,17,16,31,20.30
2008,08,17,16,32,20.30
2008,08,17,16,33,20.40
2008,08,17,16,34,20.40
2008,08,17,16,35,20.40
2008,08,17,16,36,20.40
2008,08,17,16,37,20.30
2008,08,17,16,38,20.20
2008,08,17,16,39,20.20
2008,08,17,16,40,20.20
2008,08,17,16,41,20.20
2008,08,17,16,42,20.20
2008,08,17,16,43,20.20
2008,08,17,16,44,20.10
2008,08,17,16,45,20.00
2008,08,17,16,46,20.00
2008,08,17,16,47,19.90
2008,08,17,16,48,19.90
2008,08,17,16,49,19.90
2008,08,17,16,50,20.00
2008,08,17,16,51,20.10
2008,08,17,16,52,20.10
2008,08,17,16,53,20.20
2008,08,17,16,54,20.20
2008,08,17,16,55,20.20
2008,08,17,16,56,20.20
2008,08,17,16,57,20.30
2008,08,17,16,58,20.30
2008,08,17,16,59,20.40
2008,08,17,17,00,20.40
2008,08,17,17,01,20.50
2008,08,17,17,02,20.50
2008,08,17,17,03,20.50
2008,08,17,17,04,20.50
2008,08,17,17,05,20.50
2008,08,17,17,06,20.50
2008,08,17,17,07,20.50
2008,08,17,17,08,20.50
2008,08,17,17,09,20.50
2008,08,17,17,10,20.50
2008,08,17,17,11,20.40
2008,08,17,17,12,20.40
2008,08,17,17,13,20.30
2008,08,17,17,14,20.20
2008,08,17,17,15,20.20
2008,08,17,17,16,20.20
2008,08,17,17,17,20.20
2008,08,17,17,18,20.10
2008,08,17,17,19,20.10
2008,08,17,17,20,20.10
2008,08,17,17,21,20.10
2008,08,17,17,22,20.10
2008,08,17,17,23,20.20
2008,08,17,17,24,20.20
2008,08,17,17,25,20.20
2008,08,17,17,26,20.20
2008,08,17,17,27,20.30
2008,08,17,17,28,20.30
2008,08,17,17,29,20.40
2008,08,17,17,30,20.40
2008,08,17,17,31,20.40
2008,08,17,17,32,20.40
2008,08,17,17,33,20.40
2008,08,17,17,34,20.40
2008,08,17,17,35,20.40
2008,08,17,17,36,20.40
2008,08,17,17,37,20.40
2008,08,17,17,38,20.30
2008,08,17,17,39,20.30
2008,08,17,17,40,20.30
2008,08,17,17,41,20.20
2008,08,17,17,42,20.10
2008,08,17,17,43,19.90
2008,08,17,17,44,19.80
2008,08,17,17,45,19.80
2008,08,17,17,46,19.80
2008,08,17,17,47,19.80
2008,08,17,17,48,19.80
2008,08,17,17,49,19.80
2008,08,17,17,50,19.80
2008,08,17,17,51,19.80
2008,08,17,17,52,19.90
2008,08,17,17,53,19.90
2008,08,17,17,54,19.90
2008,08,17,17,55,20.00
2008,08,17,17,56,20.10
2008,08,17,17,57,20.20
2008,08,17,17,58,20.30
2008,08,17,17,59,20.40
2008,08,17,18,00,20.50
2008,08,17,18,01,20.60
2008,08,17,18,02,20.70
2008,08,17,18,03,20.80
2008,08,17,18,04,20.80
2008,08,17,18,05,20.90